Other Public Products
Issued by NWS Grand Forks, ND

Home | Current Version | Previous Version | Graphics & Text | Print | Product List | Glossary On
Versions: 1 2 3 4 5 6 7 8 9 10 11 12 13 14 15 16 17 18 19 20 21 22 23 24 25 26 27 28 29 30 31 32 33 34 35 36 37 38 39 40 41 42 43 44 45 46 47 48 49 50
000
FPUS83 KFGF 141010
OPUFGF
PRAIRIE TO PINES WEATHER ROUNDUP
NATIONAL WEATHER SERVICE EASTERN NORTH DAKOTA/GRAND FORKS ND
400 AM CST SUN FEB 14 2016

 **SATELLITE DATA USED TO AUGMENT SKY COVER AT AUTOMATED STATIONS**
 *****  WEATHER ACROSS EASTERN NORTH DAKOTA  *****

CITY           SKY/WX    TMP DP  RH WIND       PRES   REMARKS
GRAND FORKS    MIX PCPN  14   8  77 S21G28    29.92F WCI  -4
GRAND FORKS AF CLOUDY    12   7  80 S16       29.90F WCI  -5
GRAND CITY NWS NOT AVBL
BUXTON         NOT AVBL
DEVILS LAKE    FLURRIES  13  10  88 S18       29.79F WCI  -4
FARGO          LGT SNOW  14   8  77 S22G30    29.95F WCI  -4
WAHPETON ARPT  CLOUDY    12   9  85 SE17      29.97F WCI  -5
$$

 *****  WEATHER ACROSS CENTRAL AND WESTERN NORTH DAKOTA  *****

CITY           SKY/WX    TMP DP  RH WIND       PRES   REMARKS
JAMESTOWN      LGT SNOW  13   9  84 S20       29.81F FOG     WCI  -5
BISMARCK       CLOUDY    22  18  85 CALM      29.79S FOG
MINOT          CLOUDY    24  19  81 NW6       29.73S WCI  17
MINOT AFB      CLOUDY    18  18 100 CALM      29.72F
GARRISON         N/A     26  24  92 NW17      29.73F WCI  13
WILLISTON      CLOUDY    35  30  82 W8        29.77F
DICKINSON      CLOUDY    32  29  88 NW14      29.74F WCI  22
HETTINGER      PTCLDY    33  29  85 NW16      29.79F WCI  23
$$

 *****  OTHER OBSERVATIONS NORTHEAST NORTH DAKOTA  *****

CITY           SKY/WX    TMP DP  RH WIND       PRES   REMARKS
WALHALLA       FAIR      10  10 100 SE14G23   29.87F FOG     WCI  -5
LANGDON        NOT AVBL
CAVALIER       NOT AVBL
GRAFTON        NOT AVBL
CANDO          NOT AVBL
FORT TOTTEN    NOT AVBL
ROLLA          LGT SNOW  10   9  92 S12       29.74F WCI  -4
RUGBY          NOT AVBL
 ***** THE ABOVE OBSERVATIONS ARE NON NWS ARE NOT QUALITY
        CONTROLLED AND MAY MIS-REPORT RAIN FOR SNOW...
$$

 *****  OTHER OBSERVATIONS SOUTHEAST NORTH DAKOTA *****

CITY           SKY/WX    TMP DP  RH WIND       PRES   REMARKS
COOPERSTOWN    NOT AVBL
VALLEY CITY    NOT AVBL
OAKES          LGT SNOW  14  12  92 S16       29.87F WCI  -2
GWINNER        CLOUDY    14  12  92 SE10      29.89F WCI   1
BUFFALO        NOT AVBL
WYNDMERE       NOT AVBL
 ***** THE ABOVE OBSERVATIONS ARE NON NWS ARE NOT QUALITY
       CONTROLLED AND MAY MIS-REPORT RAIN FOR SNOW...
$$

  *****  WEATHER ACROSS NORTHERN MINNESOTA  *****

CITY           SKY/WX    TMP DP  RH WIND       PRES   REMARKS
FLAG ISLAND    FLURRIES   3  -4  72 S21       29.99F WCI -18
WARROAD        CLOUDY     9   1  72 S12       29.98F WCI  -6
ROSEAU         CLOUDY    10   3  72 S14       29.97F WCI  -5
HALLOCK        LGT SNOW  12   9  85 SE18      29.93F WCI  -5
THF RVR FALLS  CLOUDY    12   5  73 SE14      29.95F WCI  -3
HALSTAD        NOT AVBL
FOSSTON        CLOUDY     9   1  72 SE12      29.96F WCI  -6
BAUDETTE       CLOUDY     5 -10  50 SE13      30.01F WCI -12
WASKISH        CLOUDY     7  -6  56 SE7       30.02F WCI  -5
CROOKSTON      CLOUDY    12   9  85 S22       29.96F WCI  -7
$$
  *****  WEATHER ACROSS CENTRAL AND WEST MINNESOTA  *****

CITY           SKY/WX    TMP DP  RH WIND       PRES   REMARKS
BEMIDJI        CLOUDY     6  -4  62 SE10      30.00F WCI  -8
PARK RAPIDS    LGT SNOW   9  -2  61 SE17      29.99F WCI  -9
WADENA         CLOUDY     9   0  66 SE13      30.00F WCI  -7
DETROIT LAKES  CLOUDY    12   5  73 S17       29.97S WCI  -5
MOORHEAD       MIX PCPN  12   9  85 S20       29.97F WCI  -6
FERGUS FALLS   LGT SNOW  10   7  85 SE16G23   30.01F WCI  -7
ELBOW LAKE     LGT SNOW  11   7  83 E16G24    29.98F WCI  -5
MORRIS MN      LGT SNOW  10   9  92 SE21      29.98F WCI  -9
STAPLES        CLOUDY     9  -4  56 SE10      30.03F WCI  -6
WHEATON        LGT SNOW  12  10  92 SE21G26   29.97F VSB 1   WCI  -6
$$
  *****  WEATHER ELSEWHERE ACROSS MINNESOTA  *****

CITY           SKY/WX    TMP DP  RH WIND       PRES   REMARKS
DULUTH         CLOUDY    -2 -14  56 SE7       30.16F WCI -15
INTRNTL FALLS  CLOUDY   -10 -18  67 SE8       30.08F WCI -26
ELY            CLOUDY   -20 -27  69 CALM      30.17F
CLOQUET        CLOUDY    -4 -17  54 E3        30.15F
BRAINERD       CLOUDY     7  -5  57 SE5       30.08F WCI  -2
HIBBING        CLOUDY   -12 -18  74 SE3       30.14F
ALEXANDRIA     LGT SNOW   9   3  77 SE16      30.00F WCI  -8
SAINT CLOUD    CLOUDY    10  -3  55 SE12      30.10F WCI  -5
MINNEAPOLIS    CLOUDY     9  -3  58 SE10      30.18F WCI  -5
$$

  *****  WEATHER ACROSS SOUTH DAKOTA  *****

CITY           SKY/WX    TMP DP  RH WIND       PRES   REMARKS
SIOUX FALLS    LGT SNOW  14   9  80 SE15G22   29.92F WCI  -1
BROOKINGS      LGT SNOW  11   7  84 S23       29.89F FOG     WCI  -9
WATERTOWN      LGT SNOW  12   7  80 S18       29.87F VSB 3/4 WCI  -6
HURON          CLOUDY    14  11  87 SE13      29.87F WCI   0
SISSETON         N/A     12   9  87 S15       29.92F WCI  -4
ABERDEEN       LGT SNOW  16  11  80 S17G31    29.86F WCI   0
MITCHELL       LGT SNOW  16  12  84 SE16      29.88F FOG     WCI   1
PIERRE         LGT SNOW  24  23  96 SE3       29.79F FOG
MOBRIDGE       CLOUDY    20  18  92 S7        29.76F FOG     WCI  11
RAPID CITY     CLEAR     36  26  67 W12       29.86S
$$

  *****  SOME WEATHER IN NEARBY STATES *****

CITY           SKY/WX    TMP DP  RH WIND       PRES   REMARKS
GLASGOW MT     CLOUDY    28  24  85 W9        29.79F WCI  19
GREAT FALLS MT CLOUDY    36  23  59 SW25      29.81F
CHEYENNE WY    CLOUDY    37  13  37 NW21G30   29.94F
SCOTTSBLUFF NE CLEAR     26  23  88 N6        29.99F WCI  19
OMAHA NE       FLURRIES  20   8  60 SE22      30.00F WCI   3
DES MOINES IA  CLOUDY    17   9  70 SE16      30.11F WCI   2
DAVENPORT IA   CLOUDY    18   2  49 SE20      30.28F WCI   2
CHICAGO IL     CLOUDY    12   2  64 S9        30.40F WCI   0
EAU CLAIRE WI  CLOUDY    -1 -11  62 E6        30.25F WCI -13
LA CROSSE WI   CLOUDY     8  -5  55 E9        30.28F WCI  -5
$$

  *****  SOME NATIONAL WEATHER *****

CITY           SKY/WX    TMP DP  RH WIND       PRES   REMARKS
LA GUARDIA NY  PTCLDY     4  -9  55 NW22G31   30.40R WCI -18
RALEIGH NC     PTCLDY    16  -1  47 VRB3      30.49R
ATLANTA GA     CLOUDY    29   8  41 E12       30.32F WCI  19
NEW ORLEANS LA PTCLDY    48  39  71 E3        30.22F
OKLAHOMA CITY  PTCLDY    45  39  79 S17       29.84F
ALBUQUERQUE NM CLOUDY    46  15  28 W5        30.11S
SALT LAKE CITY FOG       29  28  96 SE5       30.23F VSB 1/4 WCI  24
LOS ANGELES CA FOG       51  49  92 NW3       30.06S VSB 1/8
BOISE ID       LGT RAIN  42  37  82 S3        30.20R
SEATTLE WA     LGT RAIN  48  46  93 S14G23    30.13R FOG
$$

*** WEATHER ACROSS MANITOBA...SASKATCHEWAN AND ONTARIO ***
                ***ONTARIO***

CITY           SKY/WX    TMP DP  RH WIND       PRES   REMARKS
GERALDTON      CLEAR    -31 -36  75 CALM      30.25F
THUNDER BAY    FLURRIES -13 -18  77 SW5       30.31F WCI -25
SIOUX LOOKOUT  CLEAR     -9 -15  77 S7        30.10F WCI -24
TORONTO        CLEAR     -9 -22  54 N7        30.52R WCI -24
BIG TROUT LK   MOCLDY    -6 -11  77 S8        30.06F WCI -21
PICKLE LAKE    NOT AVBL
DRYDEN         CLEAR     -8 -15  71 S14       30.06F WCI -28
KENORA         FLURRIES   1 -11  55 S15G21    29.98F WCI -18
$$
                *** MANITOBA***

CITY           SKY/WX    TMP DP  RH WIND       PRES   REMARKS
BRANDON        SNOW      10   9  92 SE6       29.77F VSB 1/2 WCI   1
DAUPHIN        FLURRIES  10   7  85 SE2       29.77F
ISLAND LAKE    CLOUDY     0 -11  60 S13       29.88F WCI -18
PILOT MOUND      N/A     10   9  92 S17         N/A  WCI  -7
THE PAS        FLURRIES   9   3  78 S9        29.68F WCI  -5
THOMPSON       FLURRIES   1  -4  78 S8        29.69F WCI -12
WINNIPEG       CLOUDY    12   5  73 S25       29.90F WCI  -8
LYNN LAKE      FLURRIES   7   3  85 SW9       29.51F WCI  -7
CHURCHILL      FLURRIES   5  -4  66 SW12      29.70F WCI -11
$$
                ***SASKATCHEWAN***

CITY           SKY/WX    TMP DP  RH WIND       PRES   REMARKS
ESTEVAN        NOT AVBL
KINDERSLEY     PTCLDY    19  18  93 S5        29.66F WCI  13
LLOYDMINSTER   CLOUDY    30  25  80 W10       29.62F WCI  21
PRINCE ALBERT  CLOUDY    19  19 100 SW14      29.65F FOG     WCI   6
REGINA         CLOUDY    27  27 100 NW7       29.71F WCI  19
YORKTON        FLURRIES  14  12  92 S8        29.68F WCI   3
N. BATTLEFORD  CLOUDY    18  18 100 E6        29.66F WCI   9
LA RONGE       CLOUDY    18  16  93 S2        29.55F   C1F1C2F2C3F3C4F4C5F5C6F6C7F7C8F8C9F9CaFaCbFbCcFcCdFdCe!


USA.gov is the U.S. government's official web portal to all federal, state and local government web resources and services.